Location: Gälforsberget
(66.6500°N, 22.4167°E)
Time: 14:57:46
(UTC+00:00)

Cosmos 2369 Rocket - Pass Details

Date: 11 April 2026
Orbit: 829 x 850 km, 71.0° (Epoch: 17 May)

Event Time Altitude Azimuth Distance (km) Brightness Sun altitude
Rises 19:25:43 0° 304° (NW) 3,393 7.5 -7.7°
Reaches altitude 10° 19:28:10 10° 305° (NW) 2,455 6.3 -7.9°
Maximum altitude 19:33:49 90° 214° (SSW) 841 2.2 -8.3°
Enters shadow 19:39:20 10° 128° (SE) 2,409 3.9 -8.6°
